This is the latest recevied weather packets stored in our database for station/object DL2AKT-20. If no packets are shown the sender has not sent any weather packets the latest 10 day(s).
| Time | Temp. | Humidity | Pressure | Rain* | Wind** | Luminosity | Snow |
|---|---|---|---|---|---|---|---|
| 1777601967 | 11.67° C | 39% | 1031.6 hPa | - | - | - | - |
| 1777601067 | 12.22° C | 38% | 1031.5 hPa | - | - | - | - |
| 1777600167 | 12.22° C | 38% | 1031.6 hPa | - | - | - | - |
| 1777599267 | 12.78° C | 37% | 1031.6 hPa | - | - | - | - |
| 1777598367 | 13.33° C | 37% | 1031.6 hPa | - | - | - | - |
| 1777597467 | 13.33° C | 36% | 1031.7 hPa | - | - | - | - |
| 1777596569 | 13.33° C | 36% | 1031.7 hPa | - | - | - | - |
| 1777595669 | 12.22° C | 38% | 1031.7 hPa | - | - | - | - |
| 1777594769 | 13.33° C | 36% | 1031.6 hPa | - | - | - | - |
| 1777593868 | 13.33° C | 36% | 1031.7 hPa | - | - | - | - |
| 1777592968 | 13.33° C | 35% | 1031.6 hPa | - | - | - | - |
| 1777592068 | 13.33° C | 36% | 1031.7 hPa | - | - | - | - |
| 1777591168 | 13.33° C | 36% | 1031.8 hPa | - | - | - | - |
| 1777590268 | 13.89° C | 35% | 1031.8 hPa | - | - | - | - |
| 1777589368 | 13.89° C | 35% | 1031.7 hPa | - | - | - | - |
| 1777588468 | 13.33° C | 36% | 1031.7 hPa | - | - | - | - |
| 1777587568 | 13.89° C | 34% | 1031.8 hPa | - | - | - | - |
| 1777586668 | 13.89° C | 35% | 1031.8 hPa | - | - | - | - |
| 1777585768 | 13.89° C | 35% | 1031.8 hPa | - | - | - | - |
| 1777584868 | 13.89° C | 35% | 1031.7 hPa | - | - | - | - |
| 1777583968 | 15° C | 33% | 1031.9 hPa | - | - | - | - |
| 1777583067 | 15° C | 32% | 1031.8 hPa | - | - | - | - |
| 1777582167 | 15° C | 33% | 1031.8 hPa | - | - | - | - |
| 1777581267 | 15.56° C | 32% | 1031.9 hPa | - | - | - | - |
| 1777580367 | 15.56° C | 32% | 1031.9 hPa | - | - | - | - |
* Rain since midnight (hover to see other rain measurements)
** Current wind speed in m/s (hover to see current wind gust speed)